User: anonymous   Login
Location: Nairn
(57.5833°N, 3.8667°W)
Time: 00:17:44
(UTC+00:00)
Language:

Cosmos 1892 Rocket - Orbit

View from above orbital plane
View from above orbital plane
View from above satellite
View from above satellite

Ground track
Ground track

The orbit data is extracted from the following two-line orbital elements,

1 18422U 87088B   20293.07660870  .00000064  00000-0  48902-5 0  9996
2 18422  82.5084 113.6904 0020179  24.9816 114.4571 14.83044530782618
Epoch (UTC): 19 October 2020 01:50:18
Eccentricity: 0.0020179
inclination: 82.5084°
perigee height: 605 km
apogee height: 634 km
right ascension of ascending node: 113.6904°
argument of perigee: 24.9816°
revolutions per day: 14.83044530
mean anomaly at epoch: 114.4571°
orbit number at epoch: 78261

The dashed part of the orbit path shows where the satellite is in the earth's shadow,  

DLR